Miscellaneous Local Product
Issued by NWS Hastings, NE

Home | Current Version | Previous Version | Text Only | Print | Product List | Glossary On
Versions: 1 2 3 4 5 6 7 8 9 10 11 12 13 14 15 16 17 18 19 20 21 22 23 24 25 26 27 28 29 30 31 32 33 34 35 36 37 38 39 40 41 42 43 44 45 46 47 48 49 50
000
AXUS43 KGID 301002
MISGRI

GID CWA HOURLY WEATHER ROUNDUP
NATIONAL WEATHER SERVICE HASTINGS NE
500 AM CDT SAT AUG 30 2014

NOTE: "FAIR" INDICATES FEW OR NO CLOUDS BELOW 12,000 FEET WITH NO
SIGNIFICANT WEATHER AND/OR OBSTRUCTIONS TO VISIBILITY.

...SOUTH CENTRAL NEBRASKA...

CITY           SKY/WX    TMP DP  RH WIND       PRES   REMARKS
GRAND ISLAND   CLEAR     60  58  92 W5        29.96S
HASTINGS       CLEAR     62  57  83 NW8       29.96S
KEARNEY        CLEAR     59  55  88 NW5       29.98S
ORD            CLEAR     58  56  93 NW7       29.97R
YORK           CLEAR     59 N/A N/A NW7       29.94S
AURORA         CLEAR     59  59 100 W3        29.96R
LEXINGTON      CLEAR     57  56  95 W6        29.99S
HOLDREGE       CLEAR     59  57  92 CALM      29.99R
HEBRON         CLEAR     63  59  88 CALM      29.94R

...NEBRASKA PANHANDLE...

CITY           SKY/WX    TMP DP  RH WIND       PRES   REMARKS
CHADRON        CLEAR     51  50  96 N3        29.98F
ALLIANCE       CLEAR     52  50  93 SE3       30.03F
SCOTTSBLUFF    CLEAR     57  54  89 SE9       30.03F
SIDNEY         CLEAR     56  53  90 S5        30.07F

...WESTERN AND NORTH CENTRAL NEBRASKA...

CITY           SKY/WX    TMP DP  RH WIND       PRES   REMARKS
VALENTINE      CLEAR     53  52  96 W3        30.00S
AINSWORTH      CLEAR     55  55  98 CALM      30.01S
ONEILL         PTCLDY    58  58  99 NW8       29.98R
BROKEN BOW     CLEAR     57  54  89 CALM      30.00R
IMPERIAL       CLEAR     58  55  90 NW3       30.04S
NORTH PLATTE   PTCLDY    55  54  96 CALM      30.02R
MCCOOK         CLEAR     59  57  93 NW5       30.01S

...EASTERN NEBRASKA...

CITY           SKY/WX    TMP DP  RH WIND       PRES   REMARKS
NORFOLK        CLEAR     63  60  90 NW6       29.92S
SO SIOUX CITY  MOCLDY    66  64  93 NW12G18   29.87S
TEKAMAH        CLEAR     64  61  90 NW6       29.87S
COLUMBUS       CLEAR     61  57  88 W6        29.93S
ALBION         CLEAR     61  58  90 NW3       29.96R
OMAHA EPPLEY   CLEAR     65  62  90 W3        29.88R
OFFUTT AFB     CLEAR     64  64 100 CALM      29.88R
MILLARD        CLEAR     66  64  92 CALM      29.89R
LINCOLN        PTCLDY    66  62  87 NW3       29.92R
NEBRASKA CITY  CLEAR     64  64 100 W6        29.89S FOG
BEATRICE       CLEAR     61  61 100 W3        29.92R
FALLS CITY     CLEAR     66  65  96 W6        29.88R

...NORTHERN KANSAS...

CITY           SKY/WX    TMP DP  RH WIND       PRES   REMARKS
GOODLAND       PTCLDY    57  55  93 NW5       30.05S
HILL CITY      CLEAR     61  59  93 CALM      29.99S
NORTON         SUNNY     57  54  88 CALM      29.98S
PHILLIPSBURG   CLEAR     63  61  94 W5        29.98S
SMITH CENTER   CLEAR     61  57  88 N7        29.97S
BELOIT         CLEAR     61  61 100 CALM      29.94R
HAYS           CLEAR     61  54  77 N8        29.98S
RUSSELL        CLEAR     62  57  83 W5        29.97R
CONCORDIA      CLEAR     65  64  97 N3        29.94R
SALINA         CLEAR     66  61  84 CALM      29.93S
TOPEKA         CLEAR     70  68  93 CALM      29.89R



USA.gov is the U.S. government's official web portal to all federal, state and local government web resources and services.